This demonstration page uses our WeatherBlox Daily Observations layout. Learn more.

Left ArrowRight Arrow

Hourly Observations for July 19, 2022

Temp ( °F °C ) Dew Point ( °F °C ) Humidity (%) Winds ( mph kmh ) Pressure ( in mb ) Visibility ( mi km ) Precip ( " mm )
12:15 am 00:15 Clear 77 25.1 63 17.1 61 61 S 12 19 29.71 1006 10 16 0.00 0.00
12:35 am 00:35 Clear 77 25 63 17 61 61 S 10 17 29.73 1007 10 16 0.00 0.00
12:55 am 00:55 Clear 76 24.2 63 17.1 65 65 S 10 17 29.73 1007 10 16 0.00 0.00
1:15 am 01:15 Clear with Nearby Thunderstorms 75 24.1 63 17 65 65 S 12 19 29.73 1007 10 16 0.00 0.00
1:35 am 01:35 Clear 75 23.7 63 17.2 67 67 S 9 15 29.74 1007 10 16 0.00 0.00
1:55 am 01:55 Clear 73 23 63 17.3 70 70 SSW 12 19 29.74 1007 10 16 0.00 0.00
2:15 am 02:15 Clear with Nearby Thunderstorms 74 23.1 63 17 69 69 S 14 22 29.73 1007 10 16 0.00 0.00
2:35 am 02:35 Clear with Thunderstorms 73 22.6 63 17 71 71 S 13 20 29.74 1007 10 16 0.00 0.00
2:55 am 02:55 Clear with Nearby Thunderstorms 73 22.8 62 16.5 68 68 S 13 20 29.72 1007 10 16 0.00 0.00
3:15 am 03:15 Clear with Nearby Thunderstorms 73 23 61 16 65 65 S 16 26 29.69 1006 10 16 0.00 0.00
3:35 am 03:35 Clear with Thunderstorms 75 23.8 59 15.1 58 58 S 16 26 29.68 1005 10 16 0.00 0.00
3:55 am 03:55 Clear 75 24 59 15 57 57 S 14 22 29.67 1005 10 16 0.00 0.00
4:15 am 04:15 Clear 76 24.4 58 14.5 54 54 S 14 22 29.66 1004 10 16 0.00 0.00
4:35 am 04:35 Clear 76 24.5 57 14 52 52 S 14 22 29.64 1004 10 16 0.00 0.00
4:55 am 04:55 Clear 77 25.1 56 13.6 49 49 SSW 10 17 29.65 1004 10 16 0.00 0.00
5:15 am 05:15 Clear 77 25.2 56 13.5 48 48 S 15 24 29.64 1004 10 16 0.00 0.00
5:35 am 05:35 Clear 77 25.2 56 13.2 47 47 S 12 19 29.64 1004 10 16 0.00 0.00
5:55 am 05:55 Clear 77 25.1 56 13.1 47 47 SSW 13 20 29.64 1004 10 16 0.00 0.00
6:15 am 06:15 Clear 75 23.9 56 13.6 53 53 SSW 8 13 29.66 1004 10 16 0.00 0.00
6:35 am 06:35 Sunny 73 22.6 57 14 58 58 SSW 9 15 29.68 1005 10 16 0.00 0.00
6:55 am 06:55 Sunny 74 23.3 57 14 56 56 SSW 8 13 29.67 1005 10 16 0.00 0.00
7:15 am 07:15 Sunny 76 24.3 57 14.1 53 53 SSW 9 15 29.67 1005 10 16 0.00 0.00
7:35 am 07:35 Sunny 75 24 58 14.4 55 55 SW 9 15 29.68 1005 10 16 0.00 0.00
7:55 am 07:55 Sunny 76 24.6 59 15 55 55 SW 8 13 29.67 1005 10 16 0.00 0.00
8:15 am 08:15 Sunny 78 25.5 59 15 52 52 SSW 10 17 29.66 1005 10 16 0.00 0.00
8:35 am 08:35 Sunny 80 26.5 59 14.9 49 49 SW 12 19 29.67 1005 10 16 0.00 0.00
8:55 am 08:55 Sunny 81 27.1 60 15.6 49 49 SW 6 9 29.68 1005 10 16 0.00 0.00
9:15 am 09:15 Sunny 80 26.8 61 16 52 52 SW 7 11 29.68 1005 10 16 0.00 0.00
9:35 am 09:35 Sunny 82 28 62 16.8 51 51 NNW 8 13 29.70 1006 10 16 0.00 0.00
9:55 am 09:55 Sunny 82 27.5 64 17.5 54 54 NNW 7 11 29.71 1006 10 16 0.00 0.00
10:15 am 10:15 Sunny 83 28.1 62 16.5 49 49 Calm 29.69 1006 10 16 0.00 0.00
10:35 am 10:35 Sunny 84 28.9 61 16.2 46 46 W 5 7 29.70 1006 10 16 0.00 0.00
10:55 am 10:55 Sunny 85 29.3 61 15.9 44 44 WNW 6 9 29.69 1006 10 16 0.00 0.00
11:15 am 11:15 Sunny 86 29.8 63 17.3 47 47 NNW 6 9 29.69 1005 10 16 0.00 0.00
11:35 am 11:35 Sunny 84 28.8 62 16.7 48 48 NNE 12 19 29.71 1006 10 16 0.00 0.00
11:55 am 11:55 Sunny 84 28.8 61 16.1 46 46 N 10 17 29.71 1006 10 16 0.00 0.00
12:15 pm 12:15 Sunny 83 28.4 62 16.9 50 50 NNE 10 17 29.72 1006 10 16 0.00 0.00
12:30 pm 12:30 Sunny 85 29.2 62 16.4 46 46 N 13 20 29.71 1006 10 16 0.00 0.00
12:55 pm 12:55 Sunny 85 29.4 58 14.7 41 41 NNE 10 17 29.71 1006 10 16 0.00 0.00
1:15 pm 13:15 Sunny 86 29.8 61 15.9 43 43 NNE 10 17 29.71 1006 10 16 0.00 0.00
1:35 pm 13:35 Sunny 86 29.9 58 14.4 39 39 NNE 8 13 29.71 1006 10 16 0.00 0.00
1:55 pm 13:55 Sunny 86 29.8 58 14.4 39 39 NNE 10 17 29.71 1006 10 16 0.00 0.00
2:15 pm 14:15 Sunny 86 30.1 58 14.6 39 39 NE 9 15 29.71 1006 10 16 0.00 0.00
2:35 pm 14:35 Sunny 86 30.1 57 13.9 37 37 NNE 8 13 29.70 1006 10 16 0.00 0.00
2:55 pm 14:55 Sunny 87 30.5 58 14.7 38 38 NNE 8 13 29.69 1006 10 16 0.00 0.00
3:15 pm 15:15 Sunny 87 30.5 58 14.3 37 37 NE 6 9 29.70 1006 10 16 0.00 0.00
3:35 pm 15:35 Sunny 87 30.8 59 15.2 39 39 NNE 7 11 29.69 1005 10 16 0.00 0.00
3:55 pm 15:55 Sunny 87 30.8 58 14.7 38 38 NNE 6 9 29.69 1005 10 16 0.00 0.00
4:15 pm 16:15 Sunny 87 30.8 58 14.7 38 38 NNE 5 7 29.69 1005 10 16 0.00 0.00
4:35 pm 16:35 Sunny 88 31.1 59 15.2 38 38 N 5 7 29.69 1005 10 16 0.00 0.00
4:55 pm 16:55 Sunny 88 31 59 14.8 37 37 NE 3 6 29.69 1005 10 16 0.00 0.00
5:15 pm 17:15 Sunny 88 31.2 58 14.5 36 36 NE 3 6 29.69 1005 10 16 0.00 0.00
5:35 pm 17:35 Sunny 88 31.2 59 15.2 38 38 Calm 29.68 1005 10 16 0.00 0.00
5:55 pm 17:55 Sunny 88 31.2 59 15 37 37 E 6 9 29.68 1005 10 16 0.00 0.00
6:15 pm 18:15 Sunny 88 31.1 59 15 38 38 E 3 6 29.68 1005 10 16 0.00 0.00
6:35 pm 18:35 Sunny 88 31.1 59 15.2 38 38 E 5 7 29.67 1005 10 16 0.00 0.00
6:55 pm 18:55 Sunny 86 29.8 66 19.1 53 53 SE 5 7 29.68 1005 10 16 0.00 0.00
7:15 pm 19:15 Sunny 85 29.2 67 19.2 55 55 SE 5 7 29.67 1005 10 16 0.00 0.00
7:35 pm 19:35 Sunny 83 28.6 69 20.8 63 63 SE 3 6 29.68 1005 10 16 0.00 0.00
7:55 pm 19:55 Sunny 83 28.5 69 20.4 62 62 Calm 29.68 1005 10 16 0.00 0.00
8:15 pm 20:15 Sunny 81 27.1 71 21.8 73 73 S 3 6 29.69 1005 10 16 0.00 0.00
8:35 pm 20:35 Sunny 78 25.8 68 20.2 71 71 S 5 7 29.71 1006 10 16 0.00 0.00
8:55 pm 20:55 Sunny 76 24.6 69 20.5 78 78 S 5 7 29.72 1006 10 16 0.00 0.00
9:15 pm 21:15 Clear 76 24.7 68 19.8 74 74 SSW 3 6 29.73 1007 10 16 0.00 0.00
9:35 pm 21:35 Clear 75 24 66 19.1 74 74 Calm 29.75 1007 10 16 0.00 0.00
9:55 pm 21:55 Clear 76 24.4 65 18.2 68 68 SW 3 6 29.75 1008 10 16 0.00 0.00
10:15 pm 22:15 Clear 72 22.3 65 18.6 80 80 SW 3 6 29.78 1008 10 16 0.00 0.00
10:35 pm 22:35 Clear 73 23 64 17.5 71 71 SW 5 7 29.78 1009 10 16 0.00 0.00
10:55 pm 22:55 Clear 73 22.5 63 17.4 73 73 Calm 29.79 1009 10 16 0.00 0.00
11:15 pm 23:15 Clear 71 21.5 64 17.5 78 78 Calm 29.81 1009 10 16 0.00 0.00
11:35 pm 23:35 Clear 69 20.6 63 17.2 81 81 SW 3 6 29.81 1010 10 16 0.00 0.00
11:55 pm 23:55 Clear 69 20.6 62 16.5 77 77 WSW 3 6 29.81 1010 10 16 0.00 0.00

Powered by AerisWeather